GW0175 Weather Reports


time (UTC)temp
F
wind
direction
speed
knots
gust
knots
rain 1hr
in
rain 24hr
in
rain mn
in
humidity
%
barometer
mb
20260510022050 81 216 0.0 1.7 0.00 0.00 0.00 20 1005.3
20260510021546 81 195 0.0 1.7 0.00 0.00 0.00 21 1005.2
20260510021044 82 140 1.7 1.7 0.00 0.00 0.00 22 1005.2
20260510020538 83 187 0.0 1.7 0.00 0.00 0.00 21 1005.0
20260510020034 83 186 2.6 2.6 0.00 0.00 0.00 21 1005.1
20260510015530 84 184 1.7 2.6 0.00 0.00 0.00 20 1004.9
20260510015026 84 180 0.9 1.7 0.00 0.00 0.00 20 1004.9
20260510014523 85 166 0.0 2.6 0.00 0.00 0.00 18 1004.9
20260510014020 87 194 0.9 2.6 0.00 0.00 0.00 16 1004.8
20260510013514 87 163 3.5 4.3 0.00 0.00 0.00 16 1004.8
20260510013010 87 164 2.6 2.6 0.00 0.00 0.00 16 1004.5
20260510012505 87 180 0.0 4.3 0.00 0.00 0.00 17 1004.5
20260510012001 88 176 5.2 5.2 0.00 0.00 0.00 16 1004.4
20260510011455 89 170 5.2 5.2 0.00 0.00 0.00 16 1004.4
20260510010951 89 154 2.6 4.3 0.00 0.00 0.00 15 1004.5
20260510010449 90 173 3.5 4.3 0.00 0.00 0.00 15 1004.7
20260510005946 90 154 2.6 3.5 0.00 0.00 0.00 15 1004.5
20260510005441 91 156 3.5 4.3 0.00 0.00 0.00 15 1004.5
20260510004939 91 160 0.9 3.5 0.00 0.00 0.00 14 1004.5
20260510004436 91 151 0.9 4.3 0.00 0.00 0.00 14 1004.8
20260510003934 92 213 1.7 5.2 0.00 0.00 0.00 14 1004.4
20260510003431 93 198 1.7 2.6 0.00 0.00 0.00 13 1004.7
20260510002930 93 157 2.6 6.1 0.00 0.00 0.00 13 1004.8
20260510002427 93 160 4.3 5.2 0.00 0.00 0.00 12 1004.8
20260510001924 95 169 0.0 2.6 0.00 0.00 0.00 12 1004.4
20260510001421 94 252 3.5 6.1 0.00 0.00 0.00 11 1004.7
20260510000919 95 169 2.6 3.5 0.00 0.00 0.00 11 1004.7
20260510000415 94 258 0.0 5.2 0.00 0.00 0.00 11 1004.7
20260509235912 95 229 2.6 4.3 0.00 0.00 0.00 11 1005.0
20260509235409 95 257 1.7 3.5 0.00 0.00 0.00 11 1005.0
20260509234904 95 257 0.9 6.1 0.00 0.00 0.00 11 1004.9
20260509234402 95 259 2.6 5.2 0.00 0.00 0.00 11 1005.0
20260509233859 96 306 1.7 5.2 0.00 0.00 0.00 11 1004.8
20260509233357 96 236 2.6 2.6 0.00 0.00 0.00 10 1005.1
20260509232852 96 166 2.6 3.5 0.00 0.00 0.00 10 1005.2
20260509232351 95 265 0.0 4.3 0.00 0.00 0.00 10 1005.2
20260509231846 96 173 2.6 4.3 0.00 0.00 0.00 10 1005.0
20260509231343 96 260 3.5 9.6 0.00 0.00 0.00 10 1005.0
20260509230841 96 334 0.0 4.3 0.00 0.00 0.00 10 1005.2
20260509230338 95 212 3.5 7.8 0.00 0.00 0.00 10 1005.2
20260509225833 99 290 3.5 3.5 0.00 0.00 0.00 10 1005.5
20260509225330 98 237 1.7 2.6 0.00 0.00 0.00 10 1005.3
20260509224826 96 247 1.7 6.1 0.00 0.00 0.00 10 1005.6
20260509224322 97 266 1.7 5.2 0.00 0.00 0.00 10 1005.4
20260509223819 96 276 5.2 8.7 0.00 0.00 0.00 10 1005.3
20260509223316 96 300 0.0 7.0 0.00 0.00 0.00 10 1005.2
20260509222813 97 209 0.9 7.8 0.00 0.00 0.00 10 1005.4
20260509222308 97 194 0.9 6.1 0.00 0.00 0.00 10 1005.5
20260509221804 96 277 5.2 5.2 0.00 0.00 0.00 10 1005.6
20260509221302 94 266 2.6 7.0 0.00 0.00 0.00 10 1005.6
20260509220756 95 252 3.5 6.1 0.00 0.00 0.00 10 1005.9
20260509220253 94 152 4.3 8.7 0.00 0.00 0.00 11 1005.9
20260509215748 94 355 2.6 9.6 0.00 0.00 0.00 11 1005.6
20260509215245 96 209 1.7 5.2 0.00 0.00 0.00 10 1006.0
20260509214742 97 216 1.7 2.6 0.00 0.00 0.00 10 1006.0
20260509214239 98 337 2.6 2.6 0.00 0.00 0.00 10 1005.9
20260509213736 96 270 0.9 4.3 0.00 0.00 0.00 11 1006.2
20260509213232 94 297 1.7 3.5 0.00 0.00 0.00 11 1006.2
20260509212730 96 291 2.6 5.2 0.00 0.00 0.00 11 1006.3
20260509212227 95 204 1.7 5.2 0.00 0.00 0.00 11 1006.6
20260509211722 96 142 1.7 4.3 0.00 0.00 0.00 12 1006.5
20260509211219 95 109 0.0 5.2 0.00 0.00 0.00 11 1006.3
20260509210715 93 169 1.7 1.7 0.00 0.00 0.00 12 1006.3
20260509210213 93 95 0.0 3.5 0.00 0.00 0.00 13 1006.6
20260509205713 92 113 0.0 3.5 0.00 0.00 0.00 13 1006.8
20260509205212 94 90 0.0 2.6 0.00 0.00 0.00 13 1006.7
20260509204709 94 37 1.7 2.6 0.00 0.00 0.00 12 1006.9
20260509204205 95 90 4.3 7.0 0.00 0.00 0.00 12 1007.1
20260509203701 96 342 1.7 2.6 0.00 0.00 0.00 12 1006.9
20260509203200 94 12 0.0 6.1 0.00 0.00 0.00 11 1007.1
20260509202655 94 20 2.6 5.2 0.00 0.00 0.00 11 1007.1
20260509202150 94 27 2.6 4.3 0.00 0.00 0.00 11 1007.3
20260509201646 95 52 2.6 4.3 0.00 0.00 0.00 11 1007.5
20260509201143 94 226 4.3 4.3 0.00 0.00 0.00 12 1007.5
20260509200639 95 213 5.2 6.1 0.00 0.00 0.00 12 1007.5
20260509200134 94 113 2.6 7.0 0.00 0.00 0.00 13 1007.5
20260509195630 94 179 7.0 9.6 0.00 0.00 0.00 13 1007.8
20260509195125 94 74 0.9 8.7 0.00 0.00 0.00 13 1007.5
20260509194625 93 169 3.5 5.2 0.00 0.00 0.00 13 1007.8
20260509194122 94 178 3.5 4.3 0.00 0.00 0.00 13 1007.8
20260509193618 93 130 3.5 4.3 0.00 0.00 0.00 13 1007.8
20260509193114 93 144 4.3 7.0 0.00 0.00 0.00 14 1007.8
20260509192611 94 142 4.3 8.7 0.00 0.00 0.00 14 1008.2
20260509192106 94 174 3.5 5.2 0.00 0.00 0.00 15 1008.2
20260509191601 93 185 0.0 3.5 0.00 0.00 0.00 14 1008.0
20260509191057 92 180 2.6 5.2 0.00 0.00 0.00 15 1008.0
20260509190554 91 169 5.2 7.8 0.00 0.00 0.00 15 1008.4
20260509190052 92 105 2.6 4.3 0.00 0.00 0.00 15 1008.6
20260509185549 91 119 1.7 5.2 0.00 0.00 0.00 15 1008.5
20260509185045 91 90 1.7 4.3 0.00 0.00 0.00 14 1008.7
20260509184543 91 207 2.6 9.6 0.00 0.00 0.00 16 1008.8
20260509184039 91 210 3.5 8.7 0.00 0.00 0.00 16 1008.7
20260509183535 90 189 2.6 7.8 0.00 0.00 0.00 15 1008.9
20260509183031 90 90 0.0 9.6 0.00 0.00 0.00 16 1009.0
20260509182527 89 217 2.6 4.3 0.00 0.00 0.00 17 1008.8
20260509182025 89 208 2.6 6.1 0.00 0.00 0.00 17 1009.0
20260509181523 90 183 2.6 4.3 0.00 0.00 0.00 18 1009.2
20260509181020 88 163 4.3 8.7 0.00 0.00 0.00 18 1009.2
20260509180515 89 226 3.5 6.1 0.00 0.00 0.00 19 1009.4
20260509180013 88 168 3.5 7.8 0.00 0.00 0.00 20 1009.5
20260509175508 88 196 3.5 8.7 0.00 0.00 0.00 21 1009.5
20260509175005 88 217 1.7 6.1 0.00 0.00 0.00 20 1009.8
20260509174502 87 273 0.0 5.2 0.00 0.00 0.00 23 1009.5
20260509173956 86 161 2.6 11.3 0.00 0.00 0.00 23 1009.6
20260509173451 85 158 3.5 9.6 0.00 0.00 0.00 23 1009.8
20260509172948 85 168 6.1 9.6 0.00 0.00 0.00 24 1009.6
20260509172445 85 208 2.6 8.7 0.00 0.00 0.00 23 1009.7
20260509171940 84 199 5.2 6.1 0.00 0.00 0.00 24 1009.8
20260509171436 84 192 7.8 13.0 0.00 0.00 0.00 24 1010.0
20260509170933 84 155 2.6 9.6 0.00 0.00 0.00 25 1009.8
20260509170429 83 163 1.7 8.7 0.00 0.00 0.00 25 1010.1
20260509165924 83 180 5.2 8.7 0.00 0.00 0.00 26 1010.0
20260509165419 83 190 4.3 6.1 0.00 0.00 0.00 27 1010.1
20260509164914 82 180 4.3 6.1 0.00 0.00 0.00 27 1010.1
20260509164411 81 177 6.1 9.6 0.00 0.00 0.00 28 1010.3
20260509163907 81 160 7.8 7.8 0.00 0.00 0.00 28 1010.2
20260509163404 80 180 5.2 7.0 0.00 0.00 0.00 29 1010.2
20260509162903 80 179 3.5 9.6 0.00 0.00 0.00 29 1010.1
20260509162402 79 140 1.7 10.4 0.00 0.00 0.00 29 1010.2
20260509161858 79 163 4.3 7.8 0.00 0.00 0.00 30 1010.2
20260509161354 79 154 6.1 7.0 0.00 0.00 0.00 30 1010.0
20260509160850 78 172 2.6 9.6 0.00 0.00 0.00 31 1010.1
20260509160346 78 180 7.0 7.8 0.00 0.00 0.00 30 1010.3
20260509155841 77 181 5.2 7.0 0.00 0.00 0.00 31 1010.6
20260509155338 77 180 4.3 7.8 0.00 0.00 0.00 31 1010.3
20260509154834 76 164 4.3 9.6 0.00 0.00 0.00 32 1010.6
20260509154331 76 169 3.5 8.7 0.00 0.00 0.00 32 1010.6
20260509153828 76 178 3.5 6.1 0.00 0.00 0.00 33 1010.4
20260509153324 75 165 5.2 9.6 0.00 0.00 0.00 34 1010.7
20260509152822 74 196 4.3 7.8 0.00 0.00 0.00 34 1010.7
20260509152317 75 191 2.6 6.1 0.00 0.00 0.00 34 1010.7
20260509151815 74 134 6.1 10.4 0.00 0.00 0.00 35 1010.7
20260509151311 74 194 4.3 7.0 0.00 0.00 0.00 35 1010.7
20260509150810 73 166 5.2 7.8 0.00 0.00 0.00 36 1011.0
20260509150307 73 173 2.6 6.1 0.00 0.00 0.00 38 1010.7
20260509145804 72 174 4.3 7.8 0.00 0.00 0.00 38 1010.7
20260509145306 72 177 4.3 6.1 0.00 0.00 0.00 38 1010.8
20260509144800 71 197 4.3 8.7 0.00 0.00 0.00 39 1010.8
20260509144257 70 163 5.2 6.1 0.00 0.00 0.00 41 1010.9
20260509143754 69 201 0.0 6.1 0.00 0.00 0.00 42 1010.7
20260509143252 69 173 4.3 7.0 0.00 0.00 0.00 43 1010.9
20260509142747 68 176 1.7 7.0 0.00 0.00 0.00 44 1011.0
20260509142244 67 155 4.3 7.8 0.00 0.00 0.00 44 1010.9
20260509141739 67 181 4.3 6.1 0.00 0.00 0.00 46 1010.9
20260509141237 67 151 1.7 2.6 0.00 0.00 0.00 47 1011.0
20260509140733 66 165 3.5 3.5 0.00 0.00 0.00 48 1011.0
20260509140231 66 157 0.9 3.5 0.00 0.00 0.00 49 1010.9
20260509135728 66 131 0.0 2.6 0.00 0.00 0.00 48 1011.2
20260509135226 66 152 1.7 2.6 0.00 0.00 0.00 48 1011.0
20260509134722 65 157 1.7 2.6 0.00 0.00 0.00 48 1011.0
20260509134220 65 90 0.9 2.6 0.00 0.00 0.00 48 1010.9
20260509133717 64 106 2.6 3.5 0.00 0.00 0.00 50 1011.0
20260509133214 63 106 0.0 2.6 0.00 0.00 0.00 52 1011.1
20260509132713 62 81 0.0 3.5 0.00 0.00 0.00 55 1010.8
20260509132211 60 51 1.7 3.5 0.00 0.00 0.00 58 1010.9
20260509131707 60 106 1.7 4.3 0.00 0.00 0.00 59 1011.0
20260509131204 60 135 3.5 3.5 0.00 0.00 0.00 58 1010.7
20260509130659 60 90 0.0 2.6 0.00 0.00 0.00 58 1010.7
20260509130156 59 108 2.6 2.6 0.00 0.00 0.00 60 1010.6
20260509125652 59 109 0.9 2.6 0.00 0.00 0.00 60 1010.3
20260509125149 57 132 0.0 1.7 0.00 0.00 0.00 60 1009.9
20260509124646 57 168 1.7 2.6 0.00 0.00 0.00 60 1009.7
20260509124142 56 243 0.0 1.7 0.00 0.00 0.00 61 1009.6
20260509123640 56 232 1.7 2.6 0.00 0.00 0.00 62 1009.5
20260509123137 56 251 2.6 3.5 0.00 0.00 0.00 61 1009.2
20260509122633 55 246 2.6 3.5 0.00 0.00 0.00 61 1009.4
20260509122130 55 245 2.6 3.5 0.00 0.00 0.00 63 1009.2
20260509121626 54 168 0.9 2.6 0.00 0.00 0.00 65 1009.2
20260509121125 53 221 1.7 2.6 0.00 0.00 0.00 67 1009.6
20260509120622 54 240 1.7 2.6 0.00 0.00 0.00 66 1009.7
20260509120120 54 165 0.0 0.9 0.00 0.00 0.00 66 1009.6
20260509115617 54 151 0.0 0.0 0.00 0.00 0.00 66 1009.4
20260509115115 54 151 0.0 0.0 0.00 0.00 0.00 66 1009.2
20260509114613 55 151 0.0 0.0 0.00 0.00 0.00 65 1009.1
20260509114112 54 151 0.0 1.7 0.00 0.00 0.00 64 1009.6
20260509113609 54 254 0.0 0.0 0.00 0.00 0.00 64 1009.5
20260509113107 54 164 0.0 1.7 0.00 0.00 0.00 64 1009.1
20260509112603 54 180 0.0 0.0 0.00 0.00 0.00 64 1009.4
20260509112100 54 169 0.0 0.9 0.00 0.00 0.00 64 1009.1
20260509111557 53 96 0.0 0.0 0.00 0.00 0.00 64 1009.1
20260509111054 54 90 0.0 1.7 0.00 0.00 0.00 63 1009.1
20260509110551 55 99 0.0 0.9 0.00 0.00 0.00 61 1008.9
20260509110048 55 74 0.0 2.6 0.00 0.00 0.00 60 1009.4
20260509105546 55 41 0.0 1.7 0.00 0.00 0.00 59 1009.4
20260509105044 55 300 0.0 0.0 0.00 0.00 0.00 60 1009.0
20260509104540 55 18 0.0 0.0 0.00 0.00 0.00 60 1009.0
20260509104037 55 352 0.0 0.0 0.00 0.00 0.00 62 1009.1
20260509103535 55 74 0.0 1.7 0.00 0.00 0.00 60 1009.2
20260509103033 55 117 0.0 0.9 0.00 0.00 0.00 59 1009.1
20260509102530 56 229 0.0 0.0 0.00 0.00 0.00 58 1009.1
20260509102027 56 270 0.0 1.7 0.00 0.00 0.00 57 1009.0
20260509101523 55 35 0.9 3.5 0.00 0.00 0.00 59 1009.1
20260509101020 56 22 1.7 1.7 0.00 0.00 0.00 57 1009.1
20260509100517 56 261 0.0 0.0 0.00 0.00 0.00 56 1009.0
20260509100015 55 0 0.0 0.9 0.00 0.00 0.00 56 1009.1
20260509095511 55 26 0.9 2.6 0.00 0.00 0.00 58 1009.2
20260509095009 56 77 0.0 2.6 0.00 0.00 0.00 57 1009.1
20260509094505 56 357 1.7 3.5 0.00 0.00 0.00 56 1009.2
20260509094002 56 82 0.0 0.9 0.00 0.00 0.00 55 1009.0
20260509093500 56 97 0.0 0.9 0.00 0.00 0.00 55 1009.0
20260509092957 55 311 2.6 2.6 0.00 0.00 0.00 57 1009.1
20260509092455 56 23 0.0 0.9 0.00 0.00 0.00 54 1008.9
20260509091954 55 49 0.0 3.5 0.00 0.00 0.00 57 1009.0
20260509091450 57 14 1.7 2.6 0.00 0.00 0.00 54 1008.9
20260509090947 58 41 0.0 1.7 0.00 0.00 0.00 51 1008.8
20260509090445 57 0 0.9 2.6 0.00 0.00 0.00 52 1009.1
20260509085942 57 7 0.0 2.6 0.00 0.00 0.00 52 1008.8
20260509085439 57 57 1.7 3.5 0.00 0.00 0.00 53 1009.1
20260509084935 60 72 2.6 2.6 0.00 0.00 0.00 47 1008.9
20260509084432 60 234 0.9 1.7 0.00 0.00 0.00 47 1009.1
20260509083930 59 198 0.0 1.7 0.00 0.00 0.00 49 1009.1
20260509083426 59 111 0.0 0.9 0.00 0.00 0.00 48 1008.9
20260509082923 60 277 0.9 2.6 0.00 0.00 0.00 47 1009.0
20260509082421 62 212 0.0 3.5 0.00 0.00 0.00 44 1009.0
20260509081917 62 187 0.0 1.7 0.00 0.00 0.00 40 1009.1
20260509081415 62 277 0.0 0.0 0.00 0.00 0.00 42 1009.0
20260509080912 61 225 0.0 2.6 0.00 0.00 0.00 44 1008.9
20260509080410 60 19 0.0 1.7 0.00 0.00 0.00 45 1009.0
20260509075908 61 342 2.6 5.2 0.00 0.00 0.00 43 1009.0
20260509075404 62 2 3.5 4.3 0.00 0.00 0.00 42 1009.0
20260509074902 62 348 2.6 5.2 0.00 0.00 0.00 42 1009.0
20260509074400 63 354 5.2 6.1 0.00 0.00 0.00 39 1008.9
20260509073855 61 2 3.5 3.5 0.00 0.00 0.00 43 1008.8
20260509073352 60 7 0.0 6.1 0.00 0.00 0.00 44 1009.4
20260509072849 62 3 4.3 4.3 0.00 0.00 0.00 42 1009.1
20260509072345 60 90 0.0 0.9 0.00 0.00 0.00 44 1009.2
20260509071842 61 109 2.6 2.6 0.00 0.00 0.00 44 1008.9
20260509071339 61 109 0.9 4.3 0.00 0.00 0.00 44 1009.2
20260509070836 61 81 0.0 2.6 0.00 0.00 0.00 44 1009.2
20260509070333 63 26 2.6 3.5 0.00 0.00 0.00 41 1009.0
20260509065829 63 49 2.6 4.3 0.00 0.00 0.00 41 1009.0
20260509065325 63 46 4.3 4.3 0.00 0.00 0.00 41 1008.8
20260509064821 64 36 2.6 2.6 0.00 0.00 0.00 39 1008.9
20260509064319 61 29 8.7 19.1 0.00 0.00 0.00 43 1008.7
20260509063817 62 66 4.3 4.3 0.00 0.00 0.00 42 1008.5
20260509063313 64 270 0.0 1.7 0.00 0.00 0.00 37 1008.4
20260509062810 65 301 1.7 2.6 0.00 0.00 0.00 36 1008.6
20260509062308 66 295 1.7 2.6 0.00 0.00 0.00 35 1008.6
20260509061804 66 0 0.0 2.6 0.00 0.00 0.00 35 1008.4
20260509061302 66 213 1.7 4.3 0.00 0.00 0.00 35 1008.4
20260509060759 66 292 2.6 3.5 0.00 0.00 0.00 34 1008.5
20260509060255 67 270 0.0 1.7 0.00 0.00 0.00 34 1008.5
20260509055751 67 285 0.0 1.7 0.00 0.00 0.00 33 1008.5
20260509055247 68 293 1.7 5.2 0.00 0.00 0.00 32 1008.4
20260509054744 68 285 3.5 5.2 0.00 0.00 0.00 32 1008.7
20260509054241 68 264 0.9 2.6 0.00 0.00 0.00 32 1008.6
20260509053739 68 352 0.0 2.6 0.00 0.00 0.00 32 1008.6
20260509053236 66 243 0.9 1.7 0.00 0.00 0.00 35 1008.8
20260509052734 65 110 1.7 2.6 0.00 0.00 0.00 37 1008.6
20260509052231 69 102 0.0 2.6 0.00 0.00 0.00 30 1008.6
20260509051729 70 225 2.6 4.3 0.00 0.00 0.00 30 1008.6
20260509051227 69 292 1.7 3.5 0.00 0.00 0.00 30 1008.6
20260509050723 69 279 1.7 3.5 0.00 0.00 0.00 30 1008.4
20260509050219 68 254 0.9 3.5 0.00 0.00 0.00 31 1008.4
20260509045717 68 285 0.9 2.6 0.00 0.00 0.00 33 1008.5
20260509045214 67 290 1.7 2.6 0.00 0.00 0.00 35 1008.7
20260509044711 67 278 0.9 2.6 0.00 0.00 0.00 36 1008.5
20260509044209 67 270 0.0 2.6 0.00 0.00 0.00 37 1008.6
20260509043705 66 279 0.0 2.6 0.00 0.00 0.00 40 1008.6
20260509043201 67 277 0.9 2.6 0.00 0.00 0.00 37 1008.7
20260509042657 67 290 1.7 2.6 0.00 0.00 0.00 37 1008.8
20260509042153 68 286 0.9 3.5 0.00 0.00 0.00 36 1008.6
20260509041650 69 292 1.7 2.6 0.00 0.00 0.00 34 1008.7
20260509041148 69 264 0.0 2.6 0.00 0.00 0.00 33 1008.4
20260509040646 70 243 1.7 2.6 0.00 0.00 0.00 31 1008.6
20260509040142 71 249 0.9 2.6 0.00 0.00 0.00 32 1008.6
20260509035639 71 255 0.9 2.6 0.00 0.00 0.00 32 1008.7
20260509035136 71 233 1.7 1.7 0.00 0.00 0.00 32 1008.6
20260509034634 71 240 0.0 1.7 0.00 0.00 0.00 33 1008.6
20260509034130 70 180 0.0 2.6 0.00 0.00 0.00 35 1008.5
20260509033627 70 243 0.0 1.7 0.00 0.00 0.00 38 1008.5
20260509033124 70 286 0.0 0.9 0.00 0.00 0.00 40 1008.4
20260509032622 71 250 1.7 1.7 0.00 0.00 0.00 38 1008.3
20260509032118 71 257 1.7 2.6 0.00 0.00 0.00 36 1008.4
20260509031617 71 233 1.7 1.7 0.00 0.00 0.00 31 1008.2
20260509031114 74 154 1.7 4.3 0.00 0.00 0.00 27 1008.2
20260509030612 76 194 2.6 3.5 0.00 0.00 0.00 24 1007.9
20260509030108 75 162 1.7 2.6 0.00 0.00 0.00 24 1007.8
20260509025604 75 192 0.0 2.6 0.00 0.00 0.00 26 1007.8
20260509025100 75 215 0.0 1.7 0.00 0.00 0.00 26 1007.7
20260509024556 74 220 1.7 1.7 0.00 0.00 0.00 28 1007.8
20260509024052 75 220 1.7 2.6 0.00 0.00 0.00 27 1007.8
20260509023550 77 90 0.0 0.0 0.00 0.00 0.00 23 1007.5
20260509023047 77 90 0.0 0.9 0.00 0.00 0.00 23 1007.5
20260509022543 77 90 0.0 0.0 0.00 0.00 0.00 22 1007.5